Weather Roundup
Issued by NWS

Home | Current Version | Previous Version | Graphics & Text | Print | Product List | Glossary Off
Versions: 1 2 3 4 5 6 7 8 9 10 11 12 13 14 15 16 17 18 19 20 21 22 23 24 25 26 27 28 29 30 31 32 33 34 35 36 37 38 39 40 41 42 43 44 45 46 47 48 49 50

000
NZUS93 KARX 242059
HRRWXR

CURRENT HOURLY OBSERVATIONS ACROSS
MUCH OF THE UPPER MISSISSIPPI VALLEY
NATIONAL WEATHER SERVICE LA CROSSE WI
400 PM CDT FRI OCT 24 2014


...SOUTHEAST MINNESOTA...


CITY           SKY/WX    TMP DP  RH WIND       PRES   REMARKS
ROCHESTER      CLOUDY    59  55  87 SW6       29.88S
ROCHESTER/MAYO CLOUDY    59  55  88 S6        29.87S
WINONA         CLOUDY    61  55  82 SW7       29.87S
AUSTIN         CLOUDY    57  57 100 S5        29.87R FOG
ALBERT LEA     MOSUNNY   66  55  68 SW3       29.85S
DODGE CENTER   CLOUDY    61  55  82 SW9       29.86S
PRESTON        CLOUDY    57  54  90 S7        29.89R
OWATONNA       MOSUNNY   64  55  72 SW9       29.84F
FARIBAULT      MOSUNNY   64  55  72 S3        29.85S
$$

...ELSEWHERE IN MINNESOTA...


CITY           SKY/WX    TMP DP  RH WIND       PRES   REMARKS
MINNEAPOLIS    PTSUNNY   66  54  65 SW6       29.83R
INTNL FALLS    CLOUDY    70  40  33 SW13G21   29.66F
DULUTH         MOSUNNY   68  50  52 SW13      29.76S
RED WING       CLOUDY    59  55  88 SW3       29.85R
REDWOOD FALLS  MOSUNNY   73  47  39 NW8       29.84R
MANKATO        MOSUNNY   70  52  52 W9        29.85R
WORTHINGTON    MOSUNNY   73  37  27 NW14      29.89R
FAIRMONT       MOSUNNY   73  19  13 W7        29.85S
$$

...SOUTHWEST WISCONSIN...


CITY           SKY/WX    TMP DP  RH WIND       PRES   REMARKS
LA CROSSE      CLOUDY    62  57  83 S9        29.87R
PRAIRIE DU CHI CLOUDY    62  54  73 S7        29.89R
BOSCOBEL       CLOUDY    64  54  69 S7        29.90S
LONE ROCK      NOT AVBL
PLATTEVILLE    SUNNY     61  55  83 SE12      29.92F
FORT MC COY    PTSUNNY   64  50  60 SW6       29.87F
VIROQUA        CLOUDY    62  53  72 S8        29.89S
WIS DELLS      CLOUDY    61  49  65 S12       29.91F
$$

...ELSEWHERE IN WISCONSIN...


CITY           SKY/WX    TMP DP  RH WIND       PRES   REMARKS
MILWAUKEE      PTSUNNY   61  51  70 SW7       29.95F
MADISON        PTSUNNY   61  51  70 S9        29.93F
GREEN BAY      PTSUNNY   53  49  86 VRB7      29.92F
EAU CLAIRE     CLOUDY    59  52  77 S9        29.85S
BLACK RVR FLS  CLOUDY    64  49  59 S6        29.86F
MEDFORD        CLOUDY    56  49  77 S8        29.86F
WAUSAU         MOSUNNY   58  48  69 S6        29.87F
WIS RAPIDS     CLOUDY    60  50  69 S7        29.90F
MARSHFIELD     PTSUNNY   57  50  77 S9        29.87F
RICE LAKE      CLOUDY    59  51  73 S8        29.86R
$$

...NORTHEAST IOWA...


CITY           SKY/WX    TMP DP  RH WIND       PRES   REMARKS
DECORAH        CLOUDY    57  55  94 S9G15     29.89R FOG
MASON CITY     MOSUNNY   67  58  72 SW8       29.88S
CHARLES CITY   CLOUDY    57  57 100 VRB6      29.89S FOG
OELWEIN        CLOUDY    57  57 100 S9        29.91S FOG
$$

...ELSEWHERE IN IOWA...


CITY           SKY/WX    TMP DP  RH WIND       PRES   REMARKS
DES MOINES     CLOUDY    67  61  81 SW12      29.89S
IOWA CITY      MOSUNNY   65  58  78 S13       29.92F
FORT DODGE     PTSUNNY   72  57  60 SW9       29.88S
$$

...NORTHERN ILLINOIS...


CITY           SKY/WX    TMP DP  RH WIND       PRES   REMARKS
CHICAGO-OHARE  PTSUNNY   66  46  48 W8        29.96S
CHICAGO-MIDWAY PTSUNNY   67  49  52 SW6       29.97S
MOLINE         PTSUNNY   70  53  54 S10       29.93F
ROCKFORD       PTSUNNY   63  51  65 SW8       29.97F
PEORIA         MOSUNNY   65  53  65 S6        29.99F
$$

NOTE: "FAIR" INDICATES FEW OR NO CLOUDS BELOW 12,000 FEET WITH NO
SIGNIFICANT WEATHER AND/OR OBSTRUCTIONS TO VISIBILITY. WIND
SPEEDS ARE IN MILES-PER-HOUR.



USA.gov is the U.S. government's official web portal to all federal, state and local government web resources and services.